アトラス彗星

C/2022 QE78 ( ATLAS )

English version
Home page
Updated on February 10, 2025

---------------------------------------------------------------------

・ プロフィール

発見日 2022年8月27日
発見光度 19.4等
発見者 Asteroid Terrestrial-Impact Last Alert System (ATLAS) search program

・ 写真集

・ 軌道要素

Epoch 2024 Oct. 17.0 TT = JDT 2460600.5
T 2025 Sept. 10.58050 TT                                Rudenko
q   5.4778474            (2000.0)            P               Q
z  -0.0007892      Peri.    0.44843     -0.50421177     -0.69221380
 +/-0.0000010      Node   119.91923     +0.79045298     -0.61072728
e   1.0043230      Incl.   36.56524     +0.34778525     +0.38451560
>From 1241 observations 2022 Aug. 27-2024 Aug. 30, mean residual 0".4.

・ 星図

・ 光度変化

        m1 = 3.5 + 5 logΔ + 10.0 log r

---------------------------------------------------------------------

軌道要素はM.P.E.C. 2024-R10に掲載されたものです。
星図はステラナビゲータ Ver.10 (アストロアーツ) で作成したものです。
光度グラフはComet for Windowsで作成したものです。

---------------------------------------------------------------------

Copyright(C) Seiichi Yoshida (comet@aerith.net). All rights reserved.